THOR ABLESTAR R/B

Satellite information

Favourite Embed

Satellite Type and Status

ROCKET BODYIN ORBIT

Key statistics

Satellite THOR ABLESTAR R/B at a glance.

Uptime

23383

Days in orbit

Revolutions

≈ 14.0

Per day

Orbit

LEO

Low Earth Orbit

Inclination

66.8

Latest

Satellite identification and parameters

Extended collection of information and parameters for THOR ABLESTAR R/B.

Object identification

Identified? True

Debris? False

Object name: THOR ABLESTAR R/B

International designator: 1961-015C

Object number (NORAD): 118

Object ID (CCSDS): 118

Country: UNITED STATES OF AMERICA (US)

Current information (Y/N): Y

RCS size: LARGE

Orbital parameters

Period: 102.668 minutes

Inclination: 66.7617 deg

SMA: 7263.028 km

Apoapsis: 942.594 km

Periapsis: 827.193 km

RAAN: 205.3308 deg

Eccentricy: 0.0079444

Argument of periapsis: 161.1482 deg

Mean anomaly: 199.2574 deg

Mean motion: 14.02575191 rev/day

Mean motion (dot): 0.00000036 rev/day2

B* drag term: 0.000072621 1/REarth

Two-line elements (TLE)

Creation date: July 5, 2025, 5:45 p.m.

Reference frame: TEME

Reference center: EARTH

Epoch: July 5, 2025, 11:10 a.m. UTC

TLE line 0: 0 THOR ABLESTAR R/B

TLE line 1: 1 00118U 61015C 25186.46595030 .00000036 00000-0 72621-4 0 9998

TLE line 2: 2 00118 66.7617 205.3308 0079444 161.1482 199.2574 14.02575191267510

Live tracking on map

Real-time ground track for satellite THOR ABLESTAR R/B.

In-orbit conjunctions

A list of the most updated potential collisions computed for object THOR ABLESTAR R/B.

Target Orbit TCA Probability of collision Miss distance Type
DELTA 1 DEB SSO 2025-05-03 20:13:48 0.0001526636 128.0 (m) DEBRIS
CZ-6A DEB SSO 2024-10-23 05:46:08 0.0001637106 641.0 (m) DEBRIS

Associated space launch

THOR ABLESTAR R/B was lifted into orbit during the mission ‘Thor DM-21 Ablestar | Transit 4A & Injun-1 & Solrad 3’, on board a Thor DM-21 Ablestar space rocket.

The launch took place on June 29, 1961, 4:23 a.m. from Space Launch Complex 17B.

For more information about the launch, click the button.

Launch to space Thor DM-21 Ablestar | Transit 4A & Injun-1 & Solrad 3
Thor DM-21 Ablestar | Transit 4A & Injun-1 & Solrad 3

Agency: N/A

Status: Launch Successful

Launch date: June 29, 1961, 4:23 a.m. UTC

Rocket: Thor DM-21 Ablestar

Launch pad: Space Launch Complex 17B

Location: Cape Canaveral SFS, FL, USA

...

Latest news about this satellite

There are no fresh news available about this satellite. Check back as we update our databases every day.


Newsletter sign-up

Weekly statistics, charts and insights to help you stay on top of the space industry.